Hourly Weather Roundup
Issued by NWS Central Illinois

Home | Current Version | Previous Version | Text Only | Print | Product List | Glossary On
Versions: 1 2 3 4 5 6 7 8 9 10 11 12 13 14 15 16 17 18 19 20 21 22 23 24 25 26 27 28 29 30 31 32 33 34 35 36 37 38 39 40 41 42 43 44 45 46 47 48 49 50
000
NZUS43 KILX 260910
HWRILX

AREA WEATHER ROUNDUP
NATIONAL WEATHER SERVICE, LINCOLN IL
300 AM CST MON JAN 26 2015


CITY           SKY/WX    TMP DP  RH WIND       PRES   REMARKS
BLOOMINGTON    MOCLDY    21  18  88 NW8       29.99F WCI  11
CHAMPAIGN      CLOUDY    28  22  78 N13       29.96F WCI  17
DECATUR        CLOUDY    25  24  96 NW13      29.99S WCI  14
FLORA          CLOUDY    31  26  84 NW13      29.98R WCI  21
GALESBURG      PTCLDY    18  15  90 W5        30.02F WCI  11
JACKSONVILLE   CLOUDY    26  20  77 NW7       30.05R WCI  19
LACON          MOCLDY    18  13  80 N6        30.01F WCI  10
LAWRENCEVILLE  CLOUDY    29  24  82 N14       29.95R WCI  18
LITCHFIELD     MOCLDY    24  19  79 N13       30.01S WCI  13
$$


CITY           SKY/WX    TMP DP  RH WIND       PRES   REMARKS
LINCOLN        PTCLDY    25  19  78 N6        30.03F WCI  18
MACOMB         PTCLDY    21  18  88 NW6       30.06F WCI  14
MATTOON        CLOUDY    27  22  81 N13       29.96R WCI  16
MT CARMEL AP   CLOUDY    32  27  80 N10       29.95R WCI  24
OLNEY-NOBLE AP CLOUDY    30  27  86 NW9G21    29.98R WCI  22
PARIS          CLOUDY    28  24  86 NE9       29.97R WCI  19
PEORIA         MOCLDY    21  14  74 VRB5      30.02F WCI  15
PONTIAC        PTCLDY    22  19  87 NW8       30.00F WCI  13
RANTOUL        CLOUDY    28  23  81 N10       29.96S WCI  19
ROBINSON       CLOUDY    29  25  84 N9        29.96R WCI  21
SPRINGFIELD    MOCLDY    24  17  74 N9        30.03S WCI  14
TAYLORVILLE    CLOUDY    27  21  80 N13       30.02S WCI  16
$$

...REGIONAL REPORTS...


CITY           SKY/WX    TMP DP  RH WIND       PRES   REMARKS
CHICAGO O`HARE MOCLDY    23  15  71 E9        29.97F WCI  13
KANKAKEE       CLOUDY    24  19  78 N6        29.97F WCI  17
MOLINE         CLEAR     13  10  88 W5        30.03F WCI   5
MOUNT VERNON   CLOUDY    30  23  74 NW6       30.00R WCI  24
PITTSFIELD     MOCLDY    26  23  87 NW7       30.06S WCI  18
QUINCY         CLOUDY    26  21  81 NW7       30.05F WCI  18
ROCKFORD       CLEAR     14   9  80 N6        30.02F WCI   5
$$


CITY           SKY/WX    TMP DP  RH WIND       PRES   REMARKS
BURLINGTON     CLOUDY    22  17  81 CALM      30.03F
CEDAR RAPIDS   CLOUDY    22  16  78 S6        30.00F WCI  14
DES MOINES     CLOUDY    32  26  78 SW8       30.01F WCI  25
KIRKSVILLE     CLOUDY    29  26  89 SW5       30.03F WCI  24
OTTUMWA        CLOUDY    28  26  92 SE3       30.02F
ST LOUIS       MOCLDY    28  19  69 NW9       30.04S WCI  19
$$


CITY           SKY/WX    TMP DP  RH WIND       PRES   REMARKS
TERRE HAUTE    CLOUDY    27  22  81 N9        29.95R WCI  18
EVANSVILLE     CLOUDY    31  24  75 N9G17     29.93R WCI  23
INDIANAPOLIS   CLOUDY    20  15  81 N16       29.90R WCI   6
LAFAYETTE      MOCLDY    23  18  81 N7        29.95S WCI  15
MADISON        CLEAR     10   7  87 CALM      29.99F
MILWAUKEE      CLOUDY    17  11  77 NW7       29.99F WCI   8
$$





USA.gov is the U.S. government's official web portal to all federal, state and local government web resources and services.